RH
46 52 59 65 70 92 91 85 72 74 72 66 71 57 48 55 54 68 68 73 68 60 66 69 76 82 82 89 83 78 68 52 46
27 39 46 64 74 73 79 81 82 78 76 73 73 64 56 52 47 54 72 73 74 70 65 64 73 79 83 88 87 84 67 54 55
22 30 50 66 82 77 76 85 87 82 75 83 80 74 64 56 52 52 71 76 82 80 73 69 61 72 79 86 87 84 65 59 61
22 27 49 71 93 95 80 83 82 81 79 77 85 84 73 64 54 68 76 82 85 83 84 75 74 72 76 86 88 86 75 68 66
28 29 30 38 74 96 92 88 88 85 84 74 78 86 81 70 65 80 89 90 88 84 84 77 79 79 76 80 92 93 89 76 70
44 40 39 46 57 97 100 93 90 89 90 83 71 82 88 77 76 73 96 93 93 86 87 83 82 85 91 84 91 100 94 84 68
49 53 56 56 56 67 73 84 95 90 90 92 82 74 76 86 85 83 81 94 90 86 81 85 81 82 86 90 90 99 99 98 80
67 70 69 63 58 71 82 91 95 99 97 95 95 89 84 84 82 85 83 84 87 86 86 84 85 86 95 95 95 98 100 99 78
71 72 74 80 82 88 88 94 90 88 89 91 89 88 88 85 82 79 86 90 87 88 83 86 87 92 96 93 98 97 90 97 89
72 72 73 73 74 75 77 78 81 83 93 95 85 83 88 79 77 80 81 87 94 90 91 82 87 88 77 96 99 99 97 99 91
67 68 68 68 67 69 69 70 69 68 73 76 80 86 92 90 91 86 80 86 92 93 92 89 84 81 79 81 84 88 100 99 100
46 49 56 50 46 49 52 54 56 62 64 66 68 69 70 77 82 82 77 98 97 92 94 98 95 78 81 93 96 90 99 99 100
33 32 30 29 30 29 29 29 28 28 34 47 57 62 63 64 65 64 68 99 100 100 98 99 100 99 87 71 60 54 80 85 98
31 30 29 29 29 28 27 27 26 26 28 31 37 46 57 66 72 73 78 92 100 100 99 94 96 92 93 90 74 65 66 75 77
29 30 30 30 30 29 28 28 27 27 34 52 60 62 67 76 88 99 99 99 100 99 100 99 100 100 96 90 87 89 75 55 83
30 31 31 31 32 31 32 32 32 30 31 34 60 81 86 81 93 95 96 93 96 98 98 98 99 96 98 99 98 90 94 86 78
31 32 33 34 35 35 34 34 34 33 32 31 35 61 74 88 90 91 88 82 82 84 89 91 94 100 100 97 97 99 100 99 98
32 33 35 37 38 38 38 38 38 38 37 34 31 38 53 57 68 82 85 92 82 79 79 85 98 98 97 99 99 100 98 97 100
33 34 36 38 39 40 40 41 42 42 41 38 36 35 37 44 55 65 58 58 65 64 66 74 78 84 91 98 100 100 100 99 100
34 35 36 38 39 40 42 43 44 45 45 42 39 39 41 45 48 52 60 51 45 41 47 57 69 75 79 83 87 98 100 100 100
Wind_Speed
15 15 13 12 10 9 6 6 6 5 7 6 7 8 8 8 8 7 9 9 8 9 10 10 11 12 13 13 14 14 12 9 8
14 14 13 11 12 11 10 8 7 7 7 7 8 8 8 9 9 9 10 11 10 10 12 12 12 13 15 15 16 16 12 9 8
10 11 10 11 11 12 13 10 8 8 8 7 8 9 9 9 10 10 11 12 12 12 12 13 14 14 16 17 18 18 14 12 9
9 10 10 9 7 9 11 11 11 10 8 7 8 9 9 9 9 10 11 12 14 13 14 15 14 15 16 19 19 19 17 14 11
8 9 12 12 10 9 8 13 12 10 10 10 9 9 9 9 9 10 11 13 12 13 16 15 17 18 17 19 20 20 18 15 13
5 7 8 8 9 7 8 11 12 12 10 10 10 10 10 9 10 11 12 15 14 13 15 17 17 17 17 19 20 21 19 17 15
2 3 5 6 8 7 7 7 10 12 12 11 11 11 11 11 11 11 12 15 17 15 15 17 17 20 20 20 23 24 21 18 14
6 3 2 3 4 3 4 5 5 6 9 12 12 14 13 12 12 12 12 15 15 16 15 14 14 16 20 24 24 28 20 16 14
9 7 7 6 5 4 2 1 2 4 5 7 11 12 14 16 16 16 14 12 12 12 15 15 13 13 26 21 25 29 25 15 14
10 11 9 8 6 4 3 2 2 2 2 6 9 9 10 14 15 16 17 12 10 9 9 12 11 15 13 6 5 11 19 22 17
8 8 8 8 7 6 4 2 3 4 5 3 3 6 9 10 9 11 12 16 15 12 8 9 10 11 14 17 18 15 2 22 19
8 8 7 8 8 7 7 6 5 4 4 5 5 6 6 6 7 9 10 11 17 21 18 13 9 9 11 13 11 10 19 17 18
8 8 8 9 9 8 7 7 7 6 5 3 5 8 8 8 7 8 9 8 11 14 14 15 14 14 10 9 21 28 30 24 21
6 6 7 8 7 7 7 8 8 7 6 5 4 2 3 5 5 6 7 7 9 11 12 14 15 15 13 16 20 22 21 26 23
3 3 5 6 6 7 7 8 8 8 6 8 7 7 6 4 2 2 2 3 4 4 7 8 6 10 13 17 21 19 20 24 25
1 2 4 5 6 7 7 7 6 6 6 5 4 4 4 5 6 6 4 4 5 5 5 7 10 10 6 11 16 19 17 21 26
2 1 3 4 5 7 7 8 8 7 6 5 4 2 4 4 2 3 2 3 5 7 8 9 7 4 4 6 7 6 6 1 8
5 4 4 5 5 6 7 7 8 9 8 6 3 2 2 6 7 7 8 6 7 6 6 5 4 7 9 3 4 6 8 6 5
7 6 6 7 7 8 9 9 9 8 9 9 7 5 7 4 4 7 7 6 8 8 8 8 7 6 4 5 6 7 7 5 5
9 8 8 8 8 8 9 10 11 11 10 9 9 8 8 8 6 8 8 11 9 8 6 7 8 8 8 8 8 8 9 7 6
Wind_Direction
252 252 257 260 246 244 258 261 266 278 266 263 255 261 251 251 252 246 236 224 220 214 217 221 217 207 203 201 198 195 186 184 180
254 257 255 249 243 236 243 251 259 263 260 256 259 263 260 254 246 245 236 230 230 229 226 225 227 217 211 206 203 196 201 202 204
245 246 249 247 246 241 235 242 253 260 261 260 251 259 266 262 255 244 236 234 234 239 237 231 232 228 218 213 209 209 214 215 216
247 239 236 238 245 257 247 242 244 254 256 254 251 252 259 263 262 250 233 233 236 251 244 234 234 234 228 224 218 216 219 218 219
245 242 242 249 240 241 244 245 241 247 255 257 256 252 257 256 261 258 241 230 241 247 244 238 231 240 230 231 225 222 217 217 215
254 247 250 252 255 252 248 242 248 243 251 254 255 257 258 258 260 258 250 243 239 239 249 249 244 245 234 232 227 220 218 214 210
357 263 256 259 269 280 271 257 251 245 249 256 260 262 260 261 261 262 260 255 255 257 259 256 254 250 243 231 230 219 213 205 205
49 45 335 308 300 295 281 268 263 261 256 260 265 264 268 271 284 269 264 262 265 267 264 266 266 258 251 245 236 231 220 205 200
61 55 54 50 67 62 49 104 264 249 253 258 269 276 275 281 280 285 294 272 267 270 267 264 269 288 255 252 248 248 229 215 198
61 59 59 53 50 46 27 3 309 305 266 249 244 262 271 269 269 273 274 288 286 285 282 273 268 286 300 10 246 228 230 220 206
56 55 55 53 53 49 38 4 311 281 265 276 281 272 268 264 270 275 276 263 270 273 281 289 287 288 295 278 290 314 341 234 221
63 58 56 54 48 37 27 6 349 322 291 267 259 266 274 279 280 280 289 280 273 262 267 271 275 274 282 276 258 320 271 266 226
65 62 60 56 50 45 42 35 25 15 359 305 268 256 255 262 271 275 276 266 267 270 264 253 250 260 247 275 313 309 293 312 289
63 48 46 45 36 26 29 29 27 22 26 31 10 317 287 272 260 258 258 255 251 261 265 266 261 260 251 264 271 270 287 279 288
63 35 32 32 26 23 20 21 19 20 24 40 37 36 32 35 20 28 2 297 294 284 269 260 271 261 265 259 247 247 273 276 261
33 20 11 9 0 5 11 14 22 15 8 353 345 15 23 15 44 44 19 321 307 294 299 292 289 271 273 271 255 256 277 267 257
248 310 331 340 350 348 347 349 352 358 1 351 335 298 288 281 285 301 305 302 311 297 290 286 283 312 299 259 276 272 210 274 257
247 256 282 300 317 325 328 333 336 339 341 343 343 307 286 318 284 278 265 267 282 287 295 304 300 262 257 276 224 239 251 64 34
249 255 267 282 295 305 313 320 322 324 323 327 329 310 289 287 289 308 312 303 292 288 289 287 283 283 273 262 238 187 171 182 34
248 255 266 280 292 297 302 307 310 311 313 315 313 308 303 295 291 297 301 311 310 312 316 293 280 272 269 268 269 257 235 224 31